When you browse on this site, cookies collect data to enhance your experience and personalize the content and advertising you see.
Visit our Privacy Policy to learn more. By continuing to use the site, you agree to this use of cookies and data.
  • In Switzerland
  • List of Countries
  • For 7 days
  • Water Temperature
  • Weather Map
  • Weather Widgets
  • user-avatar
    Login

    Hourly Weather Memmingen

    Today, 28 May, Thursday

    Time Temperature Precipitation Wind Pressure Humidity
    00:00 +9°C° 0 mm 1 mps 718 mmHg 88%
    01:00 +9°C° 0 mm 1 mps 717 mmHg 88%
    02:00 +9°C° 0 mm 1 mps 717 mmHg 87%
    03:00 +9°C° 0 mm 1 mps 717 mmHg 87%
    04:00 +9°C° 0 mm 1 mps 717 mmHg 86%
    05:00 +10°C° 0 mm 1 mps 717 mmHg 84%
    06:00 +12°C° 0 mm 1 mps 717 mmHg 81%
    07:00 +13°C° 0 mm 1 mps 717 mmHg 79%
    08:00 +14°C° 0.3 mm 1 mps 717 mmHg 80%
    09:00 +14°C° 0.3 mm 2 mps 717 mmHg 82%
    10:00 +15°C° 0.3 mm 2 mps 717 mmHg 83%
    11:00 +15°C° 0.5 mm 2 mps 717 mmHg 81%
    12:00 +16°C° 0.5 mm 3 mps 716 mmHg 80%
    13:00 +16°C° 0.5 mm 3 mps 716 mmHg 78%
    14:00 +16°C° 0.2 mm 3 mps 716 mmHg 73%
    15:00 +17°C° 0.2 mm 4 mps 716 mmHg 69%
    16:00 +17°C° 0.2 mm 4 mps 716 mmHg 64%
    17:00 +15°C° 0 mm 4 mps 716 mmHg 68%
    18:00 +13°C° 0 mm 3 mps 715 mmHg 72%
    19:00 +12°C° 0 mm 3 mps 715 mmHg 75%
    20:00 +11°C° 0 mm 3 mps 716 mmHg 78%
    21:00 +9°C° 0 mm 3 mps 716 mmHg 80%
    22:00 +8°C° 0 mm 2 mps 716 mmHg 83%
    23:00 +7°C° 0 mm 2 mps 716 mmHg 85%

    Tomorrow, 29 May, Friday

    Time Temperature Precipitation Wind Pressure Humidity
    00:00 +6°C° 0 mm 2 mps 716 mmHg 88%
    01:00 +5°C° 0 mm 2 mps 715 mmHg 91%
    02:00 +5°C° 0 mm 2 mps 715 mmHg 92%
    03:00 +5°C° 0 mm 2 mps 715 mmHg 93%
    04:00 +4°C° 0 mm 2 mps 715 mmHg 95%
    05:00 +4°C° 0 mm 3 mps 715 mmHg 91%
    06:00 +6°C° 0 mm 4 mps 715 mmHg 87%
    07:00 +7°C° 0 mm 4 mps 715 mmHg 83%
    08:00 +9°C° 0 mm 5 mps 714 mmHg 76%
    09:00 +12°C° 0 mm 5 mps 714 mmHg 70%
    10:00 +13°C° 0 mm 6 mps 714 mmHg 63%
    11:00 +14°C° 0 mm 6 mps 714 mmHg 62%
    12:00 +15°C° 0 mm 6 mps 713 mmHg 61%
    13:00 +16°C° 0 mm 6 mps 713 mmHg 60%
    14:00 +16°C° 0.1 mm 6 mps 713 mmHg 60%
    15:00 +16°C° 0.1 mm 6 mps 712 mmHg 61%
    16:00 +16°C° 0.1 mm 6 mps 712 mmHg 61%
    17:00 +15°C° 0 mm 5 mps 712 mmHg 65%
    18:00 +14°C° 0 mm 5 mps 712 mmHg 69%
    19:00 +13°C° 0 mm 5 mps 711 mmHg 74%
    20:00 +11°C° 0 mm 4 mps 711 mmHg 74%
    21:00 +10°C° 0 mm 4 mps 712 mmHg 75%
    22:00 +8°C° 0 mm 4 mps 712 mmHg 76%
    23:00 +7°C° 0 mm 4 mps 712 mmHg 76%

    Day after tomorrow, 30 May, Saturday

    Time Temperature Precipitation Wind Pressure Humidity
    00:00 +6°C° 0 mm 4 mps 712 mmHg 76%
    01:00 +6°C° 0 mm 4 mps 711 mmHg 76%
    02:00 +5°C° 0 mm 4 mps 711 mmHg 80%
    03:00 +4°C° 0 mm 3 mps 711 mmHg 84%
    04:00 +3°C° 0 mm 3 mps 711 mmHg 88%
    05:00 +5°C° 0 mm 4 mps 711 mmHg 84%
    06:00 +6°C° 0 mm 4 mps 711 mmHg 80%
    07:00 +7°C° 0 mm 5 mps 711 mmHg 76%
    08:00 +9°C° 0 mm 5 mps 711 mmHg 70%
    09:00 +10°C° 0 mm 6 mps 711 mmHg 65%
    10:00 +13°C° 0 mm 6 mps 711 mmHg 59%
    11:00 +13°C° 0 mm 6 mps 711 mmHg 58%
    12:00 +14°C° 0 mm 6 mps 711 mmHg 57%
    13:00 +15°C° 0 mm 6 mps 711 mmHg 55%
    14:00 +14°C° 0 mm 6 mps 711 mmHg 56%
    15:00 +14°C° 0 mm 6 mps 711 mmHg 57%
    16:00 +14°C° 0 mm 5 mps 711 mmHg 59%
    17:00 +13°C° 0 mm 5 mps 710 mmHg 63%
    18:00 +12°C° 0 mm 4 mps 710 mmHg 68%
    19:00 +11°C° 0 mm 4 mps 710 mmHg 72%
    20:00 +9°C° 0 mm 3 mps 710 mmHg 77%
    21:00 +8°C° 0 mm 3 mps 711 mmHg 82%
    22:00 +5°C° 0 mm 3 mps 711 mmHg 86%
    23:00 +4°C° 0 mm 3 mps 711 mmHg 88%

    31 May, Sunday

    Time Temperature Precipitation Wind Pressure Humidity
    00:00 +5°C° 0 mm 2 mps 710 mmHg 90%
    01:00 +4°C° 0 mm 2 mps 710 mmHg 91%
    02:00 +4°C° 0 mm 2 mps 710 mmHg 92%
    03:00 +3°C° 0 mm 2 mps 710 mmHg 93%
    04:00 +3°C° 0 mm 2 mps 710 mmHg 94%
    05:00 +5°C° 0 mm 2 mps 710 mmHg 89%
    06:00 +5°C° 0 mm 3 mps 710 mmHg 83%
    07:00 +8°C° 0 mm 3 mps 710 mmHg 78%
    08:00 +10°C° 0 mm 4 mps 710 mmHg 71%
    09:00 +12°C° 0 mm 4 mps 710 mmHg 64%
    10:00 +13°C° 0 mm 4 mps 710 mmHg 58%
    11:00 +14°C° 0 mm 5 mps 710 mmHg 57%
    12:00 +15°C° 0 mm 5 mps 710 mmHg 56%
    13:00 +16°C° 0 mm 5 mps 710 mmHg 56%
    14:00 +16°C° 0 mm 5 mps 710 mmHg 58%
    15:00 +16°C° 0 mm 5 mps 710 mmHg 60%
    16:00 +16°C° 0 mm 5 mps 710 mmHg 62%
    17:00 +15°C° 0 mm 5 mps 710 mmHg 68%
    18:00 +13°C° 0 mm 5 mps 710 mmHg 75%
    19:00 +12°C° 0 mm 4 mps 710 mmHg 81%
    20:00 +10°C° 0 mm 4 mps 711 mmHg 86%
    21:00 +9°C° 0 mm 3 mps 711 mmHg 91%
    22:00 +7°C° 0 mm 3 mps 711 mmHg 97%
    23:00 +7°C° 0 mm 2 mps 711 mmHg 97%

    1 June, Monday

    Time Temperature Precipitation Wind Pressure Humidity
    00:00 +7°C° 0 mm 2 mps 710 mmHg 97%
    01:00 +6°C° 0 mm 2 mps 710 mmHg 98%
    02:00 +6°C° 0 mm 2 mps 710 mmHg 98%
    03:00 +6°C° 0 mm 2 mps 710 mmHg 98%
    04:00 +6°C° 0 mm 2 mps 710 mmHg 98%
    05:00 +7°C° 0 mm 2 mps 710 mmHg 96%
    06:00 +8°C° 0 mm 2 mps 710 mmHg 93%
    07:00 +9°C° 0 mm 3 mps 710 mmHg 91%
    08:00 +11°C° 0 mm 3 mps 710 mmHg 84%
    09:00 +13°C° 0 mm 4 mps 710 mmHg 76%
    10:00 +16°C° 0 mm 5 mps 710 mmHg 69%
    11:00 +17°C° 0 mm 5 mps 710 mmHg 67%
    12:00 +19°C° 0 mm 5 mps 709 mmHg 65%
    13:00 +20°C° 0 mm 6 mps 709 mmHg 64%
    14:00 +20°C° 0 mm 6 mps 709 mmHg 63%
    15:00 +20°C° 0 mm 6 mps 709 mmHg 62%
    16:00 +21°C° 0 mm 6 mps 709 mmHg 62%
    17:00 +20°C° 0 mm 5 mps 708 mmHg 67%
    18:00 +19°C° 0 mm 5 mps 708 mmHg 72%
    19:00 +18°C° 0 mm 4 mps 708 mmHg 77%
    20:00 +15°C° 0 mm 4 mps 708 mmHg 80%
    21:00 +14°C° 0 mm 4 mps 708 mmHg 84%
    22:00 +12°C° 0 mm 4 mps 708 mmHg 87%
    23:00 +12°C° 0 mm 4 mps 708 mmHg 89%

    2 June, Tuesday

    Time Temperature Precipitation Wind Pressure Humidity
    00:00 +11°C° 0 mm 4 mps 708 mmHg 91%
    01:00 +10°C° 0 mm 4 mps 708 mmHg 93%
    02:00 +10°C° 0 mm 4 mps 707 mmHg 94%
    03:00 +8°C° 0 mm 4 mps 707 mmHg 95%
    04:00 +9°C° 0 mm 3 mps 707 mmHg 96%
    05:00 +10°C° 0 mm 4 mps 707 mmHg 93%
    06:00 +11°C° 0 mm 4 mps 707 mmHg 90%
    07:00 +12°C° 0 mm 4 mps 707 mmHg 87%
    08:00 +13°C° 0 mm 5 mps 707 mmHg 79%
    09:00 +15°C° 0 mm 6 mps 707 mmHg 71%
    10:00 +17°C° 0 mm 6 mps 708 mmHg 63%
    11:00 +19°C° 0 mm 6 mps 707 mmHg 61%
    12:00 +20°C° 0 mm 7 mps 707 mmHg 58%
    13:00 +21°C° 0 mm 7 mps 707 mmHg 56%
    14:00 +20°C° 0 mm 7 mps 707 mmHg 57%
    15:00 +20°C° 0 mm 7 mps 706 mmHg 58%
    16:00 +20°C° 0 mm 7 mps 706 mmHg 59%
    17:00 +19°C° 0 mm 6 mps 706 mmHg 64%
    18:00 +17°C° 0 mm 5 mps 706 mmHg 69%
    19:00 +16°C° 0 mm 5 mps 706 mmHg 74%
    20:00 +14°C° 0 mm 4 mps 706 mmHg 79%
    21:00 +13°C° 0 mm 4 mps 706 mmHg 84%
    22:00 +11°C° 0 mm 3 mps 706 mmHg 89%
    23:00 +11°C° 0 mm 3 mps 706 mmHg 92%
    Show more